Flag for Hong Kong Weather past 2 weeks in Hong Kong, Hong Kong

Now
86 °F

Scattered clouds.


Feels Like: 99 °F
Forecast: 81 / 88 °F
Wind: 15 mph from Southeast

Location: National Airport

Current Time: Sep 17, 2014 at 3:41:09 PM

Latest Report: Sep 17, 2014 at 3:00 PM


Visibility: N/A

Pressure: 29.83 "Hg

Humidity: 79%

Dew point: 79 °F

Location of Hong KongLocation

Historic Weather in Hong Kong — Graph

°F

Hong Kong temperature yesterday

Maximum temperature yesterday: 88 °F (at 12:00 AM)
Minimum temperature yesterday: 81 °F (at 5:30 AM)
Average temperature yesterday: 84 °F

Past Weeks' High & Low Weather Summary

 TemperatureHumidityPressure
High95 °F (Sep 3, 2:00 PM)94% (Sep 12, 5:30 AM)29.86 "Hg (Sep 12, 5:30 AM)
Low79 °F (Sep 12, 5:30 AM)47% (Sep 3, 2:00 PM)29.47 "Hg (Sep 16, 3:00 AM)
Average87 °F72%29.72 "Hg
* Reported Sep 2 2:00 PM — Sep 17 2:30 PM, Hong Kong, Weather by CustomWeather, © 2014

Note: Actual official high and low records may vary slightly from our data, if they occured in-between our weather recording intervals... More about our weather records

Advertising

Hong Kong weather history for previous 24 hours

 ConditionsComfort  
Time TempWeatherWind HumidityBarometerVisibility
2:30 PM
Sep 17
84 °FRain showers. Scattered clouds.18 mph84%29.83 "Hg3 mi
2:00 PM90 °FScattered clouds.17 mph67%29.83 "HgN/A
1:30 PM90 °FScattered clouds.17 mph67%29.86 "HgN/A
1:00 PM88 °FScattered clouds.15 mph70%29.86 "HgN/A
12:30 PM88 °FScattered clouds.18 mph70%29.86 "HgN/A
12:00 PM88 °FScattered clouds.20 mph66%29.86 "HgN/A
11:30 AM88 °FScattered clouds.20 mph66%29.86 "HgN/A
11:00 AM88 °FScattered clouds.15 mph70%29.86 "HgN/A
10:30 AM86 °FSprinkles. Scattered clouds.17 mph75%29.86 "HgN/A
10:00 AM86 °FScattered clouds.17 mph75%29.86 "HgN/A
9:30 AM84 °FSprinkles. Scattered clouds.12 mph84%29.86 "HgN/A
9:00 AM84 °FSprinkles. Scattered clouds.15 mph84%29.86 "Hg6 mi
8:30 AM82 °FSprinkles. Scattered clouds.14 mph89%29.83 "HgN/A
8:00 AM84 °FSprinkles. Scattered clouds.15 mph79%29.83 "HgN/A
7:30 AM84 °FSprinkles. Scattered clouds.14 mph79%29.83 "HgN/A
7:00 AM84 °FScattered clouds.16 mph79%29.80 "HgN/A
6:30 AM84 °FScattered clouds.18 mph79%29.80 "HgN/A
6:00 AM84 °FSprinkles. Passing clouds.15 mph79%29.77 "HgN/A
5:30 AM84 °FSprinkles. Passing clouds.14 mph79%29.77 "HgN/A
5:00 AM84 °FPassing clouds.16 mph79%29.77 "HgN/A
4:30 AM82 °FPassing clouds.15 mph84%29.77 "HgN/A
4:00 AM84 °FSprinkles. Passing clouds.17 mph79%29.77 "HgN/A
3:30 AM82 °FSprinkles. Passing clouds.17 mph84%29.77 "Hg5 mi
3:00 AM84 °FPassing clouds.15 mph79%29.74 "HgN/A
2:30 AM84 °FPassing clouds.18 mph79%29.74 "HgN/A
2:00 AM84 °FPassing clouds.12 mph79%29.77 "HgN/A
1:30 AM84 °FPassing clouds.15 mph74%29.77 "HgN/A
1:00 AM84 °FPassing clouds.18 mph79%29.77 "HgN/A
12:30 AM84 °FPassing clouds.20 mph79%29.77 "HgN/A
12:00 AM84 °FPassing clouds.18 mph79%29.77 "HgN/A
11:30 PM
Sep 16
84 °FPassing clouds.21 mph79%29.74 "HgN/A
11:00 PM84 °FSprinkles. Passing clouds.20 mph79%29.77 "HgN/A
10:30 PM84 °FSprinkles. Passing clouds.21 mph84%29.74 "HgN/A
10:00 PM84 °FPassing clouds.20 mph79%29.74 "HgN/A
9:30 PM86 °FPassing clouds.22 mph75%29.74 "HgN/A
9:00 PM84 °FPassing clouds.21 mph79%29.71 "HgN/A
8:30 PM86 °FPassing clouds.26 mph70%29.71 "HgN/A
8:00 PM84 °FPassing clouds.25 mph79%29.71 "HgN/A
7:30 PM84 °FPassing clouds.21 mph79%29.68 "HgN/A
7:00 PM84 °FPassing clouds.18 mph79%29.68 "HgN/A
6:30 PM84 °FPassing clouds.23 mph74%29.68 "HgN/A
6:00 PM84 °FScattered clouds.21 mph74%29.65 "HgN/A
5:30 PM84 °FScattered clouds.22 mph74%29.62 "HgN/A
5:00 PM84 °FScattered clouds.24 mph79%29.65 "HgN/A
4:30 PM84 °FScattered clouds.24 mph74%29.62 "HgN/A
4:00 PM82 °FScattered clouds.24 mph84%29.62 "HgN/A
3:30 PM82 °FSprinkles. Scattered clouds.26 mph84%29.62 "HgN/A
3:00 PM82 °FSprinkles. Scattered clouds.26 mph79%29.65 "HgN/A
Weather by CustomWeather, © 2014

See weather overviewHow to use our weather pages